Time,TemperatureF,DewpointF,PressureIn,WindDirection,WindDirectionDegrees,WindSpeedMPH,WindSpeedGustMPH,Humidity,HourlyPrecipIn,Conditions,Clouds,dailyrainin,SoftwareType,DateUTC
2013-06-24 00:01:00,71.2,71.0,30.14,ESE,118,0.0,0.0,98,0.00,,,0.00,weatherlink.com 1.10,2013-06-24 04:01:00,
2013-06-24 00:16:00,71.1,71.0,30.14,ESE,118,0.0,0.0,98,0.00,,,0.00,weatherlink.com 1.10,2013-06-24 04:16:00,
2013-06-24 00:31:00,70.8,70.0,30.14,ESE,118,0.0,0.0,98,0.00,,,0.00,weatherlink.com 1.10,2013-06-24 04:31:00,
2013-06-24 00:46:00,70.6,70.0,30.14,ESE,118,0.0,0.0,98,0.00,,,0.00,weatherlink.com 1.10,2013-06-24 04:46:00,
2013-06-24 01:01:00,70.5,70.0,30.15,ESE,118,0.0,0.0,98,0.00,,,0.00,weatherlink.com 1.10,2013-06-24 05:01:00,
2013-06-24 01:16:00,70.4,70.0,30.14,ESE,118,0.0,0.0,98,0.00,,,0.00,weatherlink.com 1.10,2013-06-24 05:16:00,
2013-06-24 01:31:00,70.3,70.0,30.14,ESE,118,0.0,0.0,98,0.00,,,0.00,weatherlink.com 1.10,2013-06-24 05:31:00,
2013-06-24 01:46:00,70.1,70.0,30.14,ESE,118,0.0,0.0,98,0.00,,,0.00,weatherlink.com 1.10,2013-06-24 05:46:00,
2013-06-24 02:01:00,69.8,69.0,30.14,ESE,118,0.0,0.0,98,0.00,,,0.00,weatherlink.com 1.10,2013-06-24 06:01:00,
2013-06-24 02:16:00,69.5,69.0,30.14,ESE,118,0.0,0.0,98,0.00,,,0.00,weatherlink.com 1.10,2013-06-24 06:16:00,
2013-06-24 02:46:00,69.2,69.0,30.14,ESE,118,0.0,0.0,98,0.00,,,0.00,weatherlink.com 1.10,2013-06-24 06:46:00,
2013-06-24 03:01:00,69.1,69.0,30.14,ESE,118,0.0,0.0,98,0.00,,,0.00,weatherlink.com 1.10,2013-06-24 07:01:00,
2013-06-24 03:16:00,69.0,69.0,30.14,ESE,118,0.0,0.0,98,0.00,,,0.00,weatherlink.com 1.10,2013-06-24 07:16:00,
2013-06-24 03:31:00,68.9,68.0,30.15,ESE,118,0.0,0.0,98,0.00,,,0.00,weatherlink.com 1.10,2013-06-24 07:31:00,
2013-06-24 04:01:00,68.7,68.0,30.14,ESE,118,0.0,0.0,98,0.00,,,0.00,weatherlink.com 1.10,2013-06-24 08:01:00,
2013-06-24 04:16:00,68.5,68.0,30.14,ESE,118,0.0,0.0,98,0.00,,,0.00,weatherlink.com 1.10,2013-06-24 08:16:00,
2013-06-24 04:32:00,68.4,68.0,30.14,ESE,118,0.0,0.0,98,0.00,,,0.00,weatherlink.com 1.10,2013-06-24 08:32:00,
2013-06-24 05:02:00,68.1,68.0,30.13,ESE,118,0.0,0.0,98,0.00,,,0.00,weatherlink.com 1.10,2013-06-24 09:02:00,
2013-06-24 05:17:00,68.1,68.0,30.14,ESE,118,0.0,0.0,99,0.00,,,0.00,weatherlink.com 1.10,2013-06-24 09:17:00,
2013-06-24 05:32:00,68.1,68.0,30.14,ESE,118,0.0,0.0,99,0.00,,,0.00,weatherlink.com 1.10,2013-06-24 09:32:00,
2013-06-24 05:47:00,68.3,68.0,30.14,ESE,118,0.0,0.0,99,0.00,,,0.00,weatherlink.com 1.10,2013-06-24 09:47:00,
2013-06-24 06:02:00,68.5,68.0,30.14,ESE,118,0.0,0.0,99,0.00,,,0.00,weatherlink.com 1.10,2013-06-24 10:02:00,
2013-06-24 06:17:00,69.0,69.0,30.14,ESE,118,0.0,0.0,99,0.00,,,0.00,weatherlink.com 1.10,2013-06-24 10:17:00,
2013-06-24 06:32:00,69.4,69.0,30.15,ESE,118,0.0,0.0,99,0.00,,,0.00,weatherlink.com 1.10,2013-06-24 10:32:00,
2013-06-24 06:47:00,69.8,70.0,30.16,East,100,0.0,1.0,99,0.00,,,0.00,weatherlink.com 1.10,2013-06-24 10:47:00,
2013-06-24 07:02:00,70.4,70.0,30.16,East,100,0.0,0.0,99,0.00,,,0.00,weatherlink.com 1.10,2013-06-24 11:02:00,
2013-06-24 07:17:00,71.0,71.0,30.17,East,100,0.0,1.0,99,0.00,,,0.00,weatherlink.com 1.10,2013-06-24 11:17:00,
2013-06-24 07:47:00,71.6,71.0,30.17,East,100,0.0,0.0,99,0.00,,,0.00,weatherlink.com 1.10,2013-06-24 11:47:00,
2013-06-24 08:02:00,71.8,72.0,30.17,SSE,155,0.0,2.0,99,0.00,,,0.00,weatherlink.com 1.10,2013-06-24 12:02:00,
2013-06-24 08:17:00,72.0,72.0,30.17,SE,138,0.0,3.0,99,0.00,,,0.00,weatherlink.com 1.10,2013-06-24 12:17:00,
2013-06-24 08:32:00,72.2,72.0,30.17,SE,138,0.0,2.0,99,0.00,,,0.00,weatherlink.com 1.10,2013-06-24 12:32:00,
2013-06-24 08:47:00,72.5,72.0,30.18,SE,138,0.0,0.0,99,0.00,,,0.00,weatherlink.com 1.10,2013-06-24 12:47:00,
2013-06-24 09:02:00,72.8,72.0,30.18,SE,146,0.0,2.0,98,0.00,,,0.00,weatherlink.com 1.10,2013-06-24 13:02:00,
2013-06-24 09:17:00,73.4,73.0,30.18,West,280,0.0,2.0,98,0.00,,,0.00,weatherlink.com 1.10,2013-06-24 13:17:00,
2013-06-24 09:32:00,74.2,73.0,30.18,SW,225,0.0,2.0,96,0.00,,,0.00,weatherlink.com 1.10,2013-06-24 13:32:00,
2013-06-24 09:47:00,74.8,73.0,30.18,SW,215,0.0,2.0,94,0.00,,,0.00,weatherlink.com 1.10,2013-06-24 13:47:00,
2013-06-24 10:02:00,75.7,73.0,30.17,SW,230,1.0,3.0,92,0.00,,,0.00,weatherlink.com 1.10,2013-06-24 14:02:00,
2013-06-24 10:17:00,76.7,74.0,30.17,SE,133,2.0,3.0,91,0.00,,,0.00,weatherlink.com 1.10,2013-06-24 14:17:00,
2013-06-24 10:33:00,77.5,74.0,30.18,ESE,113,2.0,4.0,88,0.00,,,0.00,weatherlink.com 1.10,2013-06-24 14:33:00,
2013-06-24 10:47:00,78.0,74.0,30.18,SSE,161,0.0,5.0,86,0.00,,,0.00,weatherlink.com 1.10,2013-06-24 14:47:00,
2013-06-24 11:02:00,78.7,74.0,30.18,ESE,119,0.0,3.0,86,0.00,,,0.00,weatherlink.com 1.10,2013-06-24 15:02:00,
2013-06-24 11:17:00,79.5,75.0,30.18,NW,322,1.0,3.0,85,0.00,,,0.00,weatherlink.com 1.10,2013-06-24 15:17:00,
2013-06-24 11:32:00,80.3,75.0,30.18,ESE,123,0.0,3.0,83,0.00,,,0.00,weatherlink.com 1.10,2013-06-24 15:32:00,
2013-06-24 11:47:00,80.8,75.0,30.18,ESE,110,1.0,3.0,81,0.00,,,0.00,weatherlink.com 1.10,2013-06-24 15:47:00,
2013-06-24 12:33:00,84.3,75.0,30.17,ESE,120,3.0,6.0,73,0.00,,,0.00,weatherlink.com 1.10,2013-06-24 16:33:00,
2013-06-24 12:48:00,84.5,75.0,30.16,SE,125,0.0,5.0,74,0.00,,,0.00,weatherlink.com 1.10,2013-06-24 16:48:00,
2013-06-24 13:03:00,83.0,77.0,30.15,SSW,207,1.0,8.0,81,0.00,,,0.00,weatherlink.com 1.10,2013-06-24 17:03:00,
2013-06-24 13:33:00,80.5,77.0,30.14,SSW,203,0.0,2.0,89,0.00,,,0.00,weatherlink.com 1.10,2013-06-24 17:33:00,
2013-06-24 13:48:00,81.9,77.0,30.14,ESE,111,1.0,3.0,86,0.00,,,0.00,weatherlink.com 1.10,2013-06-24 17:48:00,
2013-06-24 14:03:00,82.3,77.0,30.14,NW,315,2.0,4.0,84,0.00,,,0.00,weatherlink.com 1.10,2013-06-24 18:03:00,
2013-06-24 14:18:00,77.8,70.0,30.14,WSW,254,4.0,8.0,78,0.00,,,0.00,weatherlink.com 1.10,2013-06-24 18:18:00,
2013-06-24 14:33:00,73.7,70.0,30.11,WSW,253,0.0,2.0,88,0.00,,,0.00,weatherlink.com 1.10,2013-06-24 18:33:00,
2013-06-24 15:18:00,73.6,72.0,30.12,ESE,105,0.0,3.0,94,0.00,,,0.00,weatherlink.com 1.10,2013-06-24 19:18:00,
2013-06-24 15:33:00,73.6,72.0,30.12,East,96,0.0,2.0,94,0.00,,,0.00,weatherlink.com 1.10,2013-06-24 19:33:00,
2013-06-24 15:48:00,73.5,72.0,30.12,SE,128,3.0,3.0,94,0.00,,,0.00,weatherlink.com 1.10,2013-06-24 19:48:00,
2013-06-24 16:03:00,73.0,71.0,30.10,SE,126,0.0,2.0,94,0.00,,,0.00,weatherlink.com 1.10,2013-06-24 20:03:00,
2013-06-24 16:18:00,72.2,70.0,30.11,SE,126,0.0,2.0,93,0.00,,,0.00,weatherlink.com 1.10,2013-06-24 20:18:00,
2013-06-24 16:33:00,71.9,70.0,30.12,ESE,112,2.0,3.0,94,0.00,,,0.00,weatherlink.com 1.10,2013-06-24 20:33:00,
2013-06-24 16:48:00,71.8,70.0,30.11,ESE,110,0.0,1.0,94,0.00,,,0.00,weatherlink.com 1.10,2013-06-24 20:48:00,
2013-06-24 17:03:00,71.7,70.0,30.10,ESE,112,0.0,2.0,94,0.00,,,0.00,weatherlink.com 1.10,2013-06-24 21:03:00,
2013-06-24 17:18:00,71.9,71.0,30.10,ESE,112,0.0,1.0,95,0.00,,,0.00,weatherlink.com 1.10,2013-06-24 21:18:00,
2013-06-24 18:03:00,73.9,72.0,30.10,WSW,250,0.0,3.0,93,0.00,,,0.00,weatherlink.com 1.10,2013-06-24 22:03:00,
2013-06-24 18:48:00,77.7,74.0,30.09,ESE,123,0.0,2.0,87,0.00,,,0.00,weatherlink.com 1.10,2013-06-24 22:48:00,
2013-06-24 19:03:00,78.4,74.0,30.10,South,172,0.0,3.0,86,0.00,,,0.00,weatherlink.com 1.10,2013-06-24 23:03:00,
2013-06-24 19:18:00,78.1,73.0,30.09,ESE,114,3.0,3.0,84,0.00,,,0.00,weatherlink.com 1.10,2013-06-24 23:18:00,
2013-06-24 19:48:00,76.4,72.0,30.09,ESE,113,1.0,2.0,87,0.00,,,0.00,weatherlink.com 1.10,2013-06-24 23:48:00,
2013-06-24 20:03:00,75.6,72.0,30.09,ESE,113,0.0,3.0,88,0.00,,,0.00,weatherlink.com 1.10,2013-06-25 00:03:00,
2013-06-24 20:18:00,74.8,71.0,30.09,SE,143,1.0,2.0,89,0.00,,,0.00,weatherlink.com 1.10,2013-06-25 00:18:00,
2013-06-24 20:33:00,74.2,71.0,30.09,SE,143,0.0,0.0,90,0.00,,,0.00,weatherlink.com 1.10,2013-06-25 00:33:00,
2013-06-24 20:48:00,73.8,71.0,30.10,SE,143,0.0,1.0,91,0.00,,,0.00,weatherlink.com 1.10,2013-06-25 00:48:00,
2013-06-24 21:03:00,73.3,71.0,30.10,SE,143,0.0,1.0,92,0.00,,,0.00,weatherlink.com 1.10,2013-06-25 01:03:00,
2013-06-24 21:18:00,72.9,71.0,30.09,SE,143,0.0,0.0,93,0.00,,,0.00,weatherlink.com 1.10,2013-06-25 01:18:00,
2013-06-24 21:33:00,72.6,71.0,30.09,SE,143,0.0,0.0,94,0.00,,,0.00,weatherlink.com 1.10,2013-06-25 01:33:00,
2013-06-24 21:48:00,72.2,71.0,30.11,SE,143,0.0,0.0,95,0.00,,,0.00,weatherlink.com 1.10,2013-06-25 01:48:00,
2013-06-24 22:03:00,71.9,71.0,30.11,SE,143,0.0,1.0,95,0.00,,,0.00,weatherlink.com 1.10,2013-06-25 02:03:00,
2013-06-24 22:33:00,71.6,70.0,30.11,SE,140,0.0,2.0,96,0.00,,,0.00,weatherlink.com 1.10,2013-06-25 02:33:00,
2013-06-24 22:48:00,71.5,70.0,30.11,SE,130,0.0,2.0,95,0.00,,,0.00,weatherlink.com 1.10,2013-06-25 02:48:00,
2013-06-24 23:03:00,71.4,70.0,30.11,SE,128,0.0,2.0,95,0.00,,,0.00,weatherlink.com 1.10,2013-06-25 03:03:00,
2013-06-24 23:18:00,71.2,70.0,30.11,SE,129,0.0,1.0,95,0.00,,,0.00,weatherlink.com 1.10,2013-06-25 03:18:00,
2013-06-24 23:48:00,71.0,70.0,30.10,SE,129,0.0,0.0,96,0.00,,,0.00,weatherlink.com 1.10,2013-06-25 03:48:00,